Terug naar catalogus

WEINA 1A

ActiefCommunicatieVLEO
NORAD 43169·PAYLOAD·🇨🇳 China

Gelanceerd Jan 25, 2018 vanaf Xichang Satellite Launch Center

Loading…

Volgende Passages (komende 24 uur)

TLE

VersSource: Space-Track

Epoch: Sep 14, 2026, 13:59 UTC

1 43169U 18011A   26257.58269314  .00001609  00000-0  12482-3 0  9990
2 43169  34.9967 338.3296 0001978 107.5245 252.5679 15.01291330471560

Volg WEINA 1A in realtime met AllMySat

Download on the App Store